QPF
0.01 0.00 0.01 0.01 0.01 0.01 0.01 0.01 0.01 0.01 0.01 0.03 0.04 0.06 0.04 0.03 0.03 0.02 0.01 0.01 0.01 0.01 0.01 0.02 0.03 0.03 0.03 0.04 0.06 0.07 0.12 0.15 0.11 0.07 0.06 0.06 0.05 0.05 0.04 0.04 0.04 0.04 0.03 0.02
0.02 0.01 0.00 0.01 0.01 0.02 0.01 0.00 0.00 0.00 0.01 0.02 0.02 0.05 0.03 0.03 0.03 0.03 0.02 0.02 0.02 0.01 0.01 0.02 0.02 0.03 0.04 0.05 0.05 0.05 0.04 0.04 0.04 0.04 0.04 0.03 0.03 0.03 0.03 0.03 0.02 0.02 0.02 0.01
0.01 0.01 0.00 0.01 0.01 0.02 0.01 0.01 0.01 0.01 0.01 0.01 0.01 0.02 0.02 0.03 0.03 0.02 0.02 0.03 0.03 0.02 0.01 0.01 0.02 0.02 0.02 0.02 0.02 0.03 0.03 0.02 0.02 0.02 0.01 0.01 0.01 0.02 0.02 0.02 0.02 0.01 0.01 0.01
0.01 0.02 0.01 0.01 0.01 0.01 0.01 0.01 0.01 0.00 0.01 0.01 0.01 0.02 0.02 0.02 0.02 0.01 0.02 0.03 0.02 0.01 0.01 0.01 0.01 0.01 0.01 0.02 0.02 0.02 0.02 0.02 0.02 0.01 0.01 0.01 0.01 0.02 0.02 0.02 0.03 0.02 0.02 0.02
0.01 0.01 0.01 0.01 0.01 0.01 0.01 0.01 0.00 0.01 0.01 0.03 0.03 0.02 0.02 0.02 0.01 0.01 0.01 0.02 0.03 0.03 0.03 0.02 0.01 0.01 0.02 0.02 0.02 0.02 0.02 0.02 0.01 0.01 0.01 0.01 0.01 0.02 0.02 0.02 0.02 0.02 0.03 0.03
0.03 0.02 0.01 0.01 0.01 0.01 0.01 0.02 0.00 0.01 0.01 0.02 0.04 0.04 0.03 0.02 0.01 0.01 0.01 0.01 0.03 0.04 0.04 0.02 0.02 0.02 0.02 0.02 0.02 0.02 0.02 0.01 0.01 0.01 0.02 0.02 0.02 0.02 0.02 0.03 0.02 0.03 0.03 0.03
0.02 0.03 0.02 0.01 0.01 0.01 0.02 0.01 0.01 0.02 0.04 0.04 0.02 0.01 0.01 0.00 0.00 0.00 0.00 0.00 0.01 0.01 0.02 0.02 0.02 0.02 0.02 0.01 0.01 0.02 0.02 0.01 0.01 0.01 0.01 0.02 0.02 0.03 0.02 0.03 0.03 0.03 0.03 0.03
0.03 0.03 0.03 0.03 0.02 0.02 0.02 0.01 0.01 0.02 0.04 0.04 0.02 0.01 0.00 0.00 0.00 0.00 0.00 0.00 0.01 0.01 0.01 0.02 0.02 0.02 0.01 0.01 0.01 0.01 0.01 0.02 0.02 0.02 0.02 0.02 0.02 0.02 0.02 0.02 0.02 0.03 0.04 0.04
0.03 0.03 0.03 0.03 0.03 0.02 0.02 0.01 0.01 0.01 0.01 0.02 0.02 0.01 0.01 0.00 0.00 0.00 0.00 0.01 0.01 0.01 0.01 0.01 0.01 0.02 0.02 0.02 0.02 0.02 0.02 0.03 0.03 0.03 0.03 0.03 0.03 0.03 0.03 0.02 0.02 0.03 0.04 0.05
0.01 0.02 0.03 0.03 0.04 0.03 0.02 0.01 0.01 0.01 0.01 0.00 0.01 0.01 0.01 0.00 0.00 0.00 0.00 0.01 0.01 0.01 0.01 0.00 0.01 0.01 0.01 0.02 0.02 0.03 0.03 0.03 0.03 0.03 0.02 0.02 0.03 0.03 0.03 0.02 0.02 0.03 0.03 0.04
0.01 0.02 0.02 0.02 0.02 0.03 0.04 0.04 0.02 0.01 0.00 0.00 0.00 0.00 0.00 0.00 0.00 0.00 0.00 0.01 0.00 0.01 0.00 0.00 0.01 0.01 0.01 0.01 0.01 0.02 0.02 0.02 0.02 0.01 0.01 0.01 0.01 0.02 0.02 0.03 0.03 0.03 0.02 0.02
0.01 0.02 0.03 0.02 0.02 0.01 0.02 0.05 0.04 0.02 0.01 0.00 0.00 0.00 0.00 0.00 0.00 0.00 0.00 0.00 0.00 0.01 0.01 0.01 0.01 0.01 0.01 0.01 0.01 0.01 0.01 0.01 0.02 0.02 0.01 0.01 0.01 0.01 0.01 0.02 0.03 0.03 0.02 0.02
0.01 0.01 0.02 0.02 0.02 0.01 0.01 0.02 0.02 0.02 0.02 0.00 0.00 0.00 0.00 0.00 0.00 0.00 0.00 0.00 0.00 0.00 0.01 0.01 0.01 0.01 0.01 0.01 0.01 0.01 0.02 0.02 0.02 0.02 0.01 0.01 0.01 0.01 0.01 0.02 0.02 0.02 0.01 0.01
0.01 0.01 0.02 0.04 0.03 0.02 0.01 0.02 0.01 0.00 0.00 0.00 0.00 0.00 0.00 0.00 0.00 0.00 0.00 0.00 0.00 0.00 0.00 0.01 0.01 0.01 0.01 0.01 0.01 0.01 0.01 0.02 0.02 0.01 0.01 0.01 0.01 0.01 0.01 0.02 0.02 0.02 0.01 0.01
0.00 0.01 0.01 0.01 0.01 0.01 0.01 0.02 0.01 0.00 0.00 0.00 0.00 0.00 0.00 0.00 0.00 0.00 0.00 0.00 0.00 0.00 0.00 0.00 0.00 0.01 0.01 0.01 0.01 0.01 0.01 0.01 0.01 0.01 0.02 0.02 0.02 0.01 0.01 0.02 0.02 0.03 0.03 0.02
0.01 0.01 0.01 0.01 0.01 0.01 0.01 0.01 0.01 0.00 0.00 0.00 0.00 0.00 0.00 0.00 0.00 0.00 0.00 0.00 0.00 0.00 0.00 0.00 0.00 0.00 0.01 0.01 0.01 0.01 0.01 0.01 0.02 0.02 0.03 0.02 0.01 0.01 0.02 0.02 0.02 0.03 0.04 0.04
0.01 0.01 0.01 0.01 0.01 0.01 0.01 0.01 0.01 0.00 0.00 0.00 0.00 0.00 0.00 0.00 0.00 0.00 0.00 0.00 0.00 0.00 0.00 0.00 0.00 0.00 0.00 0.00 0.01 0.01 0.01 0.02 0.02 0.02 0.03 0.03 0.02 0.02 0.02 0.02 0.02 0.02 0.03 0.04
0.01 0.01 0.01 0.01 0.00 0.01 0.01 0.01 0.00 0.00 0.00 0.00 0.00 0.00 0.00 0.00 0.00 0.00 0.00 0.00 0.00 0.00 0.00 0.00 0.00 0.00 0.00 0.00 0.01 0.01 0.01 0.01 0.01 0.02 0.03 0.03 0.03 0.02 0.03 0.02 0.02 0.03 0.03 0.03
0.01 0.01 0.01 0.01 0.00 0.01 0.01 0.01 0.00 0.00 0.00 0.00 0.00 0.00 0.00 0.00 0.00 0.00 0.00 0.00 0.00 0.01 0.00 0.00 0.00 0.00 0.00 0.00 0.01 0.01 0.01 0.01 0.02 0.02 0.03 0.04 0.04 0.04 0.04 0.03 0.03 0.04 0.04 0.03
0.01 0.01 0.01 0.01 0.01 0.01 0.01 0.01 0.00 0.00 0.00 0.00 0.00 0.00 0.00 0.00 0.00 0.00 0.01 0.01 0.01 0.01 0.01 0.01 0.00 0.00 0.00 0.00 0.00 0.01 0.01 0.01 0.01 0.02 0.02 0.02 0.02 0.03 0.03 0.02 0.02 0.03 0.03 0.03
0.01 0.01 0.01 0.01 0.01 0.01 0.01 0.01 0.01 0.00 0.00 0.00 0.00 0.00 0.00 0.00 0.01 0.01 0.01 0.01 0.01 0.00 0.01 0.01 0.01 0.00 0.00 0.00 0.00 0.00 0.01 0.01 0.01 0.01 0.01 0.01 0.02 0.03 0.03 0.02 0.02 0.02 0.03 0.03
0.02 0.02 0.02 0.01 0.01 0.01 0.01 0.01 0.01 0.00 0.00 0.00 0.00 0.00 0.00 0.00 0.00 0.01 0.01 0.01 0.01 0.01 0.01 0.01 0.00 0.00 0.00 0.00 0.00 0.00 0.01 0.01 0.01 0.01 0.01 0.01 0.02 0.03 0.03 0.03 0.03 0.03 0.03 0.03
0.04 0.04 0.03 0.01 0.01 0.01 0.01 0.00 0.00 0.00 0.00 0.00 0.00 0.00 0.00 0.01 0.01 0.01 0.01 0.01 0.01 0.01 0.01 0.00 0.00 0.00 0.01 0.00 0.01 0.01 0.01 0.01 0.01 0.01 0.02 0.02 0.03 0.04 0.04 0.03 0.03 0.02 0.02 0.03
0.05 0.07 0.04 0.01 0.01 0.01 0.00 0.00 0.00 0.00 0.00 0.00 0.00 0.00 0.00 0.01 0.01 0.01 0.01 0.01 0.01 0.01 0.01 0.00 0.01 0.01 0.01 0.01 0.01 0.01 0.01 0.01 0.02 0.02 0.02 0.02 0.03 0.03 0.03 0.02 0.02 0.02 0.02 0.03
0.06 0.08 0.05 0.02 0.01 0.01 0.00 0.00 0.00 0.00 0.00 0.00 0.00 0.00 0.00 0.00 0.01 0.01 0.02 0.02 0.01 0.01 0.01 0.01 0.01 0.01 0.01 0.02 0.02 0.01 0.02 0.01 0.01 0.01 0.01 0.01 0.02 0.03 0.02 0.02 0.02 0.02 0.03 0.04
0.06 0.07 0.04 0.02 0.01 0.01 0.00 0.00 0.00 0.00 0.00 0.00 0.00 0.00 0.01 0.01 0.01 0.01 0.01 0.01 0.02 0.02 0.02 0.01 0.02 0.01 0.01 0.01 0.01 0.01 0.01 0.01 0.00 0.01 0.00 0.00 0.01 0.02 0.02 0.01 0.02 0.03 0.04 0.04
0.03 0.04 0.03 0.02 0.01 0.01 0.01 0.00 0.00 0.00 0.00 0.00 0.00 0.01 0.00 0.01 0.01 0.01 0.02 0.01 0.01 0.01 0.01 0.02 0.02 0.01 0.01 0.01 0.01 0.01 0.01 0.01 0.00 0.00 0.00 0.01 0.01 0.02 0.02 0.02 0.02 0.03 0.03 0.03
MSLP
1009.71 1009.97 1010.14 1010.27 1010.38 1010.49 1010.61 1010.74 1010.87 1010.98 1011.06 1011.11 1011.14 1011.13 1011.11 1011.06 1010.99 1010.89 1010.73 1010.49 1010.18 1009.77 1009.26 1008.68 1008.03 1007.35 1006.66 1005.99 1005.37 1004.82 1004.36 1003.98 1003.69 1003.51 1003.43 1003.45 1003.58 1003.82 1004.15 1004.57 1005.06 1005.60 1006.17 1006.75
1009.84 1010.07 1010.15 1010.14 1010.09 1010.03 1010.00 1010.02 1010.09 1010.20 1010.36 1010.53 1010.71 1010.87 1010.99 1011.06 1011.06 1010.98 1010.79 1010.50 1010.10 1009.60 1009.02 1008.36 1007.66 1006.95 1006.24 1005.57 1004.95 1004.41 1003.94 1003.56 1003.28 1003.10 1003.03 1003.07 1003.23 1003.49 1003.85 1004.29 1004.80 1005.35 1005.92 1006.49
1009.94 1010.15 1010.19 1010.10 1009.94 1009.77 1009.63 1009.56 1009.57 1009.68 1009.87 1010.11 1010.38 1010.65 1010.87 1011.01 1011.06 1010.98 1010.78 1010.45 1009.99 1009.43 1008.78 1008.08 1007.36 1006.63 1005.93 1005.27 1004.66 1004.13 1003.67 1003.31 1003.03 1002.86 1002.80 1002.85 1003.02 1003.30 1003.67 1004.12 1004.63 1005.18 1005.75 1006.31
1010.02 1010.22 1010.24 1010.11 1009.90 1009.66 1009.45 1009.31 1009.28 1009.35 1009.53 1009.78 1010.09 1010.39 1010.65 1010.83 1010.90 1010.83 1010.62 1010.27 1009.79 1009.20 1008.54 1007.83 1007.11 1006.39 1005.71 1005.07 1004.49 1003.98 1003.54 1003.19 1002.93 1002.77 1002.72 1002.78 1002.95 1003.23 1003.60 1004.05 1004.55 1005.09 1005.64 1006.18
1010.07 1010.26 1010.27 1010.14 1009.92 1009.65 1009.39 1009.20 1009.11 1009.12 1009.25 1009.47 1009.75 1010.04 1010.30 1010.48 1010.55 1010.50 1010.30 1009.96 1009.49 1008.92 1008.28 1007.60 1006.91 1006.22 1005.57 1004.96 1004.41 1003.93 1003.52 1003.18 1002.94 1002.79 1002.75 1002.82 1003.00 1003.27 1003.64 1004.07 1004.55 1005.07 1005.59 1006.10
1010.02 1010.21 1010.24 1010.12 1009.91 1009.63 1009.35 1009.12 1008.96 1008.91 1008.96 1009.11 1009.32 1009.56 1009.78 1009.95 1010.03 1009.99 1009.82 1009.53 1009.11 1008.60 1008.02 1007.40 1006.75 1006.12 1005.51 1004.94 1004.42 1003.97 1003.58 1003.27 1003.05 1002.92 1002.89 1002.97 1003.15 1003.42 1003.77 1004.19 1004.64 1005.12 1005.61 1006.08
1009.87 1010.05 1010.09 1010.01 1009.81 1009.55 1009.27 1009.01 1008.79 1008.66 1008.63 1008.68 1008.80 1008.97 1009.15 1009.29 1009.38 1009.37 1009.26 1009.03 1008.70 1008.28 1007.78 1007.23 1006.66 1006.08 1005.52 1004.99 1004.51 1004.08 1003.72 1003.44 1003.24 1003.14 1003.13 1003.23 1003.41 1003.68 1004.02 1004.41 1004.83 1005.27 1005.71 1006.13
1009.58 1009.76 1009.82 1009.77 1009.62 1009.39 1009.11 1008.83 1008.57 1008.37 1008.24 1008.20 1008.24 1008.33 1008.46 1008.58 1008.68 1008.71 1008.67 1008.54 1008.31 1007.98 1007.59 1007.13 1006.63 1006.11 1005.60 1005.11 1004.65 1004.25 1003.92 1003.67 1003.50 1003.43 1003.45 1003.57 1003.77 1004.04 1004.37 1004.73 1005.12 1005.51 1005.89 1006.26
1009.19 1009.37 1009.46 1009.45 1009.35 1009.15 1008.90 1008.61 1008.32 1008.06 1007.86 1007.74 1007.69 1007.71 1007.79 1007.90 1008.01 1008.10 1008.13 1008.09 1007.96 1007.74 1007.45 1007.08 1006.66 1006.20 1005.73 1005.27 1004.85 1004.47 1004.17 1003.95 1003.81 1003.77 1003.83 1003.97 1004.19 1004.47 1004.78 1005.13 1005.48 1005.82 1006.15 1006.45
1008.75 1008.94 1009.06 1009.10 1009.05 1008.90 1008.68 1008.40 1008.09 1007.80 1007.54 1007.34 1007.22 1007.19 1007.22 1007.32 1007.44 1007.56 1007.66 1007.70 1007.67 1007.55 1007.35 1007.06 1006.71 1006.31 1005.88 1005.46 1005.06 1004.72 1004.44 1004.25 1004.14 1004.14 1004.23 1004.39 1004.63 1004.91 1005.22 1005.54 1005.86 1006.16 1006.43 1006.68
1008.36 1008.56 1008.72 1008.80 1008.80 1008.70 1008.52 1008.26 1007.95 1007.63 1007.32 1007.07 1006.89 1006.80 1006.79 1006.86 1006.98 1007.13 1007.27 1007.38 1007.42 1007.38 1007.26 1007.05 1006.76 1006.41 1006.02 1005.64 1005.27 1004.95 1004.70 1004.53 1004.46 1004.48 1004.59 1004.78 1005.02 1005.30 1005.60 1005.90 1006.19 1006.45 1006.69 1006.89
1008.10 1008.32 1008.51 1008.64 1008.68 1008.63 1008.48 1008.24 1007.93 1007.60 1007.26 1006.96 1006.72 1006.57 1006.51 1006.53 1006.63 1006.78 1006.93 1007.07 1007.17 1007.19 1007.12 1006.97 1006.74 1006.45 1006.11 1005.76 1005.43 1005.15 1004.92 1004.78 1004.73 1004.76 1004.88 1005.07 1005.31 1005.58 1005.86 1006.14 1006.40 1006.64 1006.84 1007.02
1008.03 1008.27 1008.48 1008.64 1008.72 1008.71 1008.59 1008.37 1008.06 1007.71 1007.34 1006.99 1006.69 1006.47 1006.34 1006.31 1006.35 1006.46 1006.60 1006.74 1006.85 1006.91 1006.89 1006.80 1006.63 1006.39 1006.11 1005.82 1005.54 1005.29 1005.10 1004.98 1004.93 1004.97 1005.08 1005.25 1005.46 1005.71 1005.96 1006.21 1006.45 1006.66 1006.86 1007.03
1008.17 1008.42 1008.65 1008.83 1008.93 1008.94 1008.84 1008.63 1008.33 1007.96 1007.56 1007.15 1006.78 1006.48 1006.26 1006.14 1006.11 1006.15 1006.24 1006.35 1006.46 1006.53 1006.55 1006.50 1006.39 1006.23 1006.02 1005.79 1005.57 1005.37 1005.21 1005.11 1005.08 1005.10 1005.19 1005.32 1005.49 1005.69 1005.90 1006.11 1006.32 1006.53 1006.72 1006.91
1008.48 1008.73 1008.96 1009.15 1009.27 1009.29 1009.20 1009.00 1008.69 1008.31 1007.86 1007.40 1006.96 1006.56 1006.25 1006.02 1005.88 1005.83 1005.84 1005.90 1005.98 1006.05 1006.09 1006.09 1006.04 1005.95 1005.83 1005.68 1005.53 1005.40 1005.28 1005.21 1005.17 1005.18 1005.23 1005.32 1005.43 1005.57 1005.72 1005.89 1006.07 1006.26 1006.46 1006.68
1008.90 1009.13 1009.35 1009.54 1009.66 1009.69 1009.61 1009.41 1009.11 1008.70 1008.22 1007.71 1007.19 1006.70 1006.28 1005.93 1005.68 1005.51 1005.43 1005.42 1005.44 1005.49 1005.55 1005.59 1005.61 1005.60 1005.56 1005.51 1005.45 1005.38 1005.33 1005.28 1005.25 1005.25 1005.26 1005.29 1005.34 1005.41 1005.50 1005.62 1005.76 1005.93 1006.13 1006.37
1009.32 1009.53 1009.74 1009.91 1010.04 1010.07 1010.01 1009.82 1009.52 1009.11 1008.60 1008.05 1007.46 1006.89 1006.36 1005.90 1005.52 1005.24 1005.05 1004.94 1004.91 1004.93 1004.98 1005.04 1005.12 1005.19 1005.24 1005.29 1005.32 1005.34 1005.34 1005.34 1005.34 1005.32 1005.31 1005.29 1005.29 1005.29 1005.32 1005.38 1005.47 1005.61 1005.81 1006.05
1009.66 1009.84 1010.03 1010.20 1010.33 1010.38 1010.33 1010.17 1009.88 1009.48 1008.98 1008.39 1007.77 1007.13 1006.51 1005.95 1005.45 1005.06 1004.75 1004.55 1004.44 1004.40 1004.43 1004.51 1004.62 1004.75 1004.89 1005.03 1005.15 1005.25 1005.33 1005.39 1005.42 1005.42 1005.40 1005.36 1005.31 1005.26 1005.24 1005.24 1005.29 1005.39 1005.56 1005.78
1009.86 1010.01 1010.19 1010.35 1010.48 1010.55 1010.53 1010.41 1010.16 1009.79 1009.31 1008.73 1008.09 1007.42 1006.74 1006.10 1005.51 1005.01 1004.60 1004.29 1004.09 1003.99 1003.98 1004.04 1004.16 1004.33 1004.52 1004.72 1004.93 1005.11 1005.27 1005.39 1005.48 1005.52 1005.51 1005.48 1005.42 1005.35 1005.28 1005.25 1005.25 1005.31 1005.43 1005.62
1009.90 1010.03 1010.18 1010.34 1010.49 1010.58 1010.60 1010.52 1010.33 1010.01 1009.58 1009.04 1008.42 1007.75 1007.05 1006.36 1005.70 1005.12 1004.61 1004.21 1003.91 1003.73 1003.64 1003.66 1003.75 1003.92 1004.13 1004.37 1004.63 1004.88 1005.12 1005.31 1005.46 1005.56 1005.61 1005.60 1005.56 1005.50 1005.43 1005.37 1005.34 1005.36 1005.43 1005.56
1009.81 1009.91 1010.05 1010.20 1010.35 1010.47 1010.52 1010.50 1010.37 1010.13 1009.77 1009.30 1008.73 1008.09 1007.41 1006.70 1006.02 1005.37 1004.79 1004.29 1003.90 1003.62 1003.44 1003.38 1003.41 1003.53 1003.73 1003.97 1004.25 1004.55 1004.83 1005.09 1005.32 1005.49 1005.61 1005.67 1005.68 1005.66 1005.61 1005.56 1005.51 1005.50 1005.52 1005.60
1009.65 1009.71 1009.82 1009.96 1010.10 1010.24 1010.33 1010.35 1010.29 1010.13 1009.86 1009.48 1008.99 1008.42 1007.78 1007.10 1006.41 1005.74 1005.10 1004.53 1004.05 1003.66 1003.38 1003.21 1003.14 1003.19 1003.32 1003.52 1003.79 1004.09 1004.41 1004.72 1005.01 1005.26 1005.46 1005.60 1005.69 1005.73 1005.74 1005.72 1005.68 1005.65 1005.65 1005.67
1009.49 1009.51 1009.57 1009.68 1009.81 1009.94 1010.05 1010.11 1010.11 1010.02 1009.84 1009.56 1009.17 1008.69 1008.13 1007.50 1006.84 1006.17 1005.51 1004.88 1004.32 1003.83 1003.43 1003.14 1002.96 1002.89 1002.92 1003.05 1003.26 1003.54 1003.85 1004.18 1004.52 1004.83 1005.11 1005.35 1005.53 1005.65 1005.73 1005.76 1005.76 1005.75 1005.73 1005.73
1009.40 1009.37 1009.38 1009.43 1009.52 1009.63 1009.73 1009.81 1009.85 1009.83 1009.73 1009.54 1009.25 1008.88 1008.41 1007.87 1007.26 1006.62 1005.96 1005.30 1004.67 1004.10 1003.60 1003.18 1002.87 1002.67 1002.58 1002.60 1002.73 1002.93 1003.21 1003.54 1003.89 1004.24 1004.58 1004.89 1005.16 1005.37 1005.53 1005.63 1005.69 1005.71 1005.71 1005.70
1009.44 1009.34 1009.29 1009.28 1009.31 1009.37 1009.44 1009.52 1009.57 1009.59 1009.55 1009.44 1009.25 1008.97 1008.61 1008.16 1007.63 1007.04 1006.40 1005.74 1005.08 1004.44 1003.85 1003.33 1002.89 1002.56 1002.34 1002.24 1002.25 1002.36 1002.57 1002.85 1003.18 1003.55 1003.92 1004.28 1004.61 1004.90 1005.13 1005.31 1005.43 1005.51 1005.54 1005.56
1009.66 1009.50 1009.37 1009.28 1009.24 1009.23 1009.25 1009.29 1009.33 1009.35 1009.35 1009.30 1009.18 1008.99 1008.72 1008.36 1007.91 1007.39 1006.80 1006.16 1005.50 1004.82 1004.17 1003.57 1003.03 1002.58 1002.24 1002.01 1001.90 1001.91 1002.03 1002.23 1002.52 1002.85 1003.22 1003.60 1003.96 1004.30 1004.59 1004.83 1005.01 1005.15 1005.24 1005.30
1010.08 1009.85 1009.65 1009.48 1009.35 1009.26 1009.20 1009.18 1009.18 1009.19 1009.18 1009.16 1009.09 1008.96 1008.76 1008.47 1008.11 1007.66 1007.13 1006.53 1005.89 1005.22 1004.54 1003.89 1003.29 1002.76 1002.32 1001.98 1001.76 1001.66 1001.68 1001.79 1002.00 1002.28 1002.61 1002.96 1003.33 1003.67 1003.99 1004.27 1004.51 1004.70 1004.84 1004.95
Thickness
5731 5741 5741 5737 5737 5737 5727 5718 5706 5707 5704 5708 5710 5710 5708 5705 5703 5700 5697 5694 5691 5688 5684 5682 5679 5677 5675 5672 5670 5667 5663 5659 5655 5653 5650 5647 5644 5642 5640 5639 5637 5635 5633 5631
5725 5738 5738 5733 5736 5735 5731 5725 5715 5709 5704 5713 5711 5707 5702 5699 5697 5694 5691 5689 5686 5683 5680 5677 5675 5673 5671 5668 5666 5663 5659 5655 5652 5649 5646 5643 5641 5639 5636 5634 5632 5630 5628 5626
5707 5725 5725 5712 5727 5729 5725 5725 5717 5703 5704 5708 5702 5701 5697 5695 5693 5689 5686 5684 5680 5678 5675 5672 5670 5668 5666 5664 5661 5658 5654 5651 5648 5644 5641 5639 5637 5634 5631 5629 5627 5625 5623 5621
5700 5706 5693 5712 5735 5734 5724 5721 5722 5715 5711 5708 5703 5699 5696 5693 5689 5685 5683 5678 5675 5673 5671 5668 5666 5664 5661 5658 5655 5652 5648 5645 5643 5640 5637 5635 5632 5629 5627 5625 5622 5621 5620 5618
5689 5687 5694 5714 5726 5726 5715 5707 5716 5711 5707 5702 5699 5692 5686 5689 5688 5684 5680 5675 5671 5669 5666 5664 5662 5659 5655 5652 5648 5645 5643 5641 5639 5636 5633 5630 5627 5624 5623 5621 5619 5617 5616 5614
5689 5683 5681 5701 5725 5732 5717 5693 5709 5708 5701 5696 5691 5674 5673 5683 5683 5680 5676 5672 5668 5664 5661 5658 5655 5653 5649 5645 5642 5639 5638 5637 5635 5633 5629 5626 5623 5621 5619 5617 5615 5614 5613 5611
5686 5680 5689 5713 5725 5723 5693 5691 5705 5704 5699 5693 5685 5681 5679 5679 5677 5674 5670 5667 5664 5659 5654 5652 5650 5647 5642 5639 5637 5636 5635 5633 5631 5628 5625 5622 5619 5617 5615 5613 5611 5609 5608 5607
5681 5675 5682 5715 5715 5703 5698 5705 5704 5699 5695 5690 5684 5681 5677 5674 5670 5667 5663 5660 5657 5652 5648 5646 5645 5641 5636 5634 5634 5633 5630 5628 5625 5623 5622 5620 5616 5613 5612 5609 5607 5605 5603 5603
5686 5686 5700 5708 5707 5707 5706 5701 5698 5693 5689 5685 5679 5674 5670 5666 5663 5660 5657 5653 5650 5646 5642 5640 5639 5636 5631 5630 5630 5627 5625 5622 5620 5619 5617 5615 5612 5609 5607 5605 5602 5601 5599 5598
5685 5690 5698 5701 5701 5701 5702 5698 5696 5691 5686 5681 5674 5668 5664 5659 5655 5652 5649 5646 5643 5639 5636 5634 5632 5630 5627 5626 5625 5622 5619 5617 5615 5613 5612 5610 5607 5605 5603 5601 5599 5597 5595 5594
5678 5683 5687 5690 5691 5692 5693 5693 5689 5685 5681 5676 5669 5661 5657 5651 5648 5644 5641 5638 5636 5632 5629 5627 5626 5625 5623 5622 5619 5616 5613 5612 5610 5609 5607 5605 5604 5602 5601 5599 5597 5595 5593 5592
5671 5679 5676 5677 5684 5687 5684 5681 5680 5676 5671 5667 5662 5655 5650 5645 5642 5638 5635 5632 5630 5627 5624 5622 5620 5619 5618 5616 5613 5610 5608 5606 5605 5604 5602 5601 5599 5599 5600 5598 5596 5594 5592 5590
5681 5682 5679 5678 5679 5680 5676 5673 5671 5668 5663 5657 5653 5649 5644 5639 5636 5633 5630 5627 5624 5621 5619 5617 5615 5613 5612 5611 5608 5605 5602 5601 5599 5599 5598 5597 5596 5595 5594 5595 5593 5591 5589 5587
5679 5676 5669 5669 5668 5670 5669 5667 5664 5660 5656 5652 5647 5643 5639 5634 5630 5627 5624 5622 5620 5617 5614 5612 5610 5608 5607 5605 5603 5600 5598 5597 5596 5594 5593 5592 5592 5592 5590 5589 5587 5587 5586 5584
5668 5667 5662 5661 5660 5659 5659 5656 5652 5648 5645 5642 5639 5635 5632 5627 5623 5621 5619 5618 5615 5611 5609 5607 5604 5603 5602 5600 5597 5595 5593 5592 5591 5590 5589 5588 5588 5587 5586 5585 5583 5582 5581 5581
5656 5656 5653 5650 5648 5647 5646 5645 5641 5638 5636 5633 5630 5628 5625 5622 5619 5616 5614 5612 5608 5604 5603 5601 5599 5598 5597 5594 5592 5590 5588 5589 5588 5586 5584 5583 5583 5582 5581 5580 5578 5577 5576 5576
5642 5639 5638 5638 5637 5636 5635 5635 5633 5630 5628 5625 5623 5621 5618 5615 5612 5609 5608 5606 5604 5601 5599 5596 5594 5594 5592 5590 5587 5585 5583 5583 5583 5581 5579 5578 5577 5577 5576 5575 5573 5572 5572 5573
5637 5635 5633 5631 5629 5627 5627 5626 5624 5622 5620 5619 5617 5614 5610 5606 5603 5602 5601 5600 5597 5594 5593 5592 5590 5588 5587 5584 5582 5580 5579 5578 5577 5575 5574 5573 5572 5572 5571 5571 5570 5569 5569 5569
5627 5626 5624 5623 5622 5620 5618 5616 5615 5614 5613 5612 5609 5605 5603 5601 5598 5597 5595 5591 5588 5586 5586 5587 5585 5583 5581 5579 5578 5575 5574 5573 5572 5570 5569 5568 5568 5567 5567 5566 5566 5566 5565 5565
5615 5615 5615 5614 5614 5612 5610 5608 5607 5605 5604 5603 5600 5597 5595 5593 5592 5590 5586 5583 5582 5582 5582 5581 5579 5577 5576 5574 5573 5570 5569 5568 5566 5565 5564 5564 5563 5563 5562 5562 5562 5562 5561 5561
5599 5601 5602 5601 5600 5600 5599 5598 5597 5596 5595 5594 5591 5589 5587 5586 5585 5582 5579 5576 5577 5578 5576 5575 5573 5571 5570 5568 5568 5565 5564 5563 5561 5560 5559 5559 5559 5559 5558 5558 5558 5558 5558 5557
5584 5586 5587 5588 5588 5587 5587 5587 5587 5587 5586 5585 5584 5583 5580 5578 5577 5575 5573 5571 5572 5572 5570 5568 5567 5566 5565 5564 5563 5561 5560 5559 5557 5556 5555 5555 5555 5554 5554 5554 5553 5554 5554 5553
5572 5573 5574 5575 5576 5576 5577 5577 5577 5577 5577 5576 5575 5573 5572 5570 5568 5566 5565 5566 5566 5566 5564 5563 5563 5562 5560 5560 5558 5557 5556 5554 5553 5552 5551 5551 5551 5551 5550 5550 5549 5549 5549 5548
5561 5562 5563 5565 5565 5565 5565 5566 5567 5567 5567 5567 5567 5566 5565 5563 5562 5562 5562 5562 5561 5560 5559 5558 5558 5557 5556 5555 5553 5552 5551 5549 5548 5547 5547 5546 5546 5546 5545 5545 5545 5545 5544 5544
5551 5552 5553 5554 5554 5553 5554 5556 5557 5557 5558 5558 5558 5558 5558 5558 5556 5556 5557 5557 5556 5555 5554 5554 5554 5553 5551 5550 5548 5547 5546 5544 5543 5543 5543 5542 5541 5541 5540 5541 5540 5540 5540 5539
5540 5541 5542 5543 5544 5545 5545 5546 5546 5546 5547 5547 5548 5549 5550 5550 5550 5550 5550 5550 5550 5549 5548 5548 5548 5547 5546 5545 5544 5542 5541 5540 5539 5539 5538 5538 5537 5536 5536 5536 5536 5535 5535 5534
5531 5532 5533 5534 5536 5536 5537 5537 5537 5538 5538 5539 5539 5541 5542 5542 5542 5542 5542 5542 5542 5542 5541 5541 5541 5541 5540 5540 5538 5537 5536 5535 5534 5533 5533 5532 5532 5532 5532 5532 5532 5531 5531 5530